Weather History for KLNS - November, 2011

Change the Weather History Date:

Thursday, November 3, 2011

  Actual Average Record
Temperature  
Mean Temperature 48 °F -  
Max Temperature 61 °F 59 °F 79 °F (2003)
Min Temperature 35 °F 38 °F 25 °F (1986)
Degree Days  
Heating Degree Days 18    
Moisture  
Dew Point 39 °F    
Average Humidity 80    
Maximum Humidity 97    
Minimum Humidity 51    
Precipitation  
Precipitation 0.00 in - - ()
Sea Level Pressure  
Sea Level Pressure 30.10 in    
Wind  
Wind Speed 2 mph (SE)    
Max Wind Speed 7 mph    
Max Gust Speed -    
Visibility 6 miles    
Events      
Averages and records for this station are not official NWS values.
T = Trace of Precipitation, MM = Missing Value Source: NWS Daily Summary

Daily Weather History Graph

Daily Weather History Graph

Search for Another Location

Airport or City:

Trip Planner

Search our weather history database for the weather conditions in past years. The results will help you decide how hot, cold, wet, or windy it might be!

Date:

Astronomy

Nov. 03, 2011 Rise Set
Actual Time 7:36 AM EDT 6:00 PM EDT
Civil Twilight 7:08 AM EDT 6:28 PM EDT
Nautical Twilight 6:35 AM EDT 7:00 PM EDT
Astronomical Twilight 6:04 AM EDT 7:32 PM EDT
Moon 2:23 PM EDT (11/3) 12:46 AM EDT (11/3)
Length of Visible Light 11h 20m
Length of Day
10h 24m
First Quarter, 60% of the Moon is Illuminated
Nov 3
First Quarter
Nov 10
Full
Nov 18
Last Quarter
Nov 25
New
Dec 2
First Quarter

Hourly Weather History & Observations

Time (EDT) Temp. Windchill Dew Point Humidity Pressure Visibility Wind Dir Wind Speed Gust Speed Precip Events Conditions
12:53 AM 39.9 °F - 37.0 °F 89% 30.24 in 6.0 mi Calm Calm - N/A   Clear
1:53 AM 39.9 °F - 36.0 °F 86% 30.22 in 5.0 mi Calm Calm - N/A   Clear
2:53 AM 37.9 °F - 36.0 °F 93% 30.21 in 4.0 mi Calm Calm - N/A   Clear
3:53 AM 39.0 °F 36.8 °F 36.0 °F 89% 30.19 in 4.0 mi East 3.5 mph - N/A   Clear
4:53 AM 37.9 °F - 36.0 °F 93% 30.19 in 4.0 mi Calm Calm - N/A   Clear
5:27 AM 35.6 °F 32.8 °F 33.8 °F 93% 30.19 in 2.5 mi ESE 3.5 mph - N/A   Clear
5:42 AM 35.6 °F - 33.8 °F 93% 30.19 in 3.0 mi Calm Calm - N/A   Clear
5:53 AM 36.0 °F 33.3 °F 35.1 °F 97% 30.19 in 3.0 mi East 3.5 mph - N/A   Clear
6:53 AM 35.1 °F - 34.0 °F 96% 30.17 in 3.0 mi Calm Calm - N/A   Clear
7:53 AM 37.0 °F - 35.1 °F 93% 30.16 in 3.0 mi Calm Calm - N/A   Clear
8:53 AM 41.0 °F - 37.9 °F 89% 30.17 in 3.0 mi Calm Calm - N/A   Clear
9:53 AM 46.9 °F - 39.9 °F 77% 30.16 in 7.0 mi South 4.6 mph - N/A   Clear
10:53 AM 50.0 °F - 41.0 °F 71% 30.14 in 9.0 mi WSW 5.8 mph - N/A   Clear
11:53 AM 52.0 °F - 41.0 °F 66% 30.12 in 9.0 mi South 4.6 mph - N/A   Clear
12:53 PM 54.0 °F - 42.1 °F 64% 30.08 in 9.0 mi South 4.6 mph - N/A   Clear
1:53 PM 57.9 °F - 44.1 °F 60% 30.04 in 9.0 mi Variable 3.5 mph - N/A   Clear
2:53 PM 57.9 °F - 45.0 °F 62% 30.01 in 9.0 mi East 3.5 mph - N/A   Clear
3:53 PM 60.1 °F - 42.1 °F 51% 29.99 in 10.0 mi SSE 4.6 mph - N/A   Clear
4:53 PM 60.1 °F - 44.1 °F 55% 29.97 in 10.0 mi SSE 5.8 mph - N/A   Clear
5:53 PM 54.0 °F - 44.1 °F 69% 29.96 in 8.0 mi SE 6.9 mph - N/A   Clear
6:53 PM 50.0 °F - 43.0 °F 77% 29.96 in 9.0 mi Calm Calm - N/A   Clear
7:53 PM 48.9 °F - 43.0 °F 80% 29.98 in 9.0 mi Calm Calm - N/A   Clear
8:53 PM 46.9 °F - 42.1 °F 83% 29.97 in 7.0 mi East 3.5 mph - N/A   Clear
10:53 PM 42.1 °F 40.2 °F 39.9 °F 92% 29.96 in 4.0 mi ENE 3.5 mph - N/A   Clear
11:53 PM 44.1 °F 40.8 °F 41.0 °F 89% 29.96 in 4.0 mi South 5.8 mph - N/A   Clear